Satellite: NO-44
Catalog number: 26931
Epoch time:      11292.63419266
Element set:     876
Inclination:      067.0540 deg
RA of node:       022.8546 deg
Eccentricity:    0.0004896
Arg of perigee:   260.4103 deg
Mean anomaly:     099.6464 deg
Mean motion:   14.29694873 rev/day
Decay rate:       2.08e-06 rev/day^2
Epoch rev:           52471
Checksum:              324

Satellite: SO-50
Catalog number: 27607
Epoch time:      11292.54543498
Element set:     593
Inclination:      064.5593 deg
RA of node:       309.7489 deg
Eccentricity:    0.0081836
Arg of perigee:   295.4180 deg
Mean anomaly:     063.8489 deg
Mean motion:   14.71882273 rev/day
Decay rate:      1.316e-05 rev/day^2
Epoch rev:           47439
Checksum:              356

Satellite: CO-55
Catalog number: 27844
Epoch time:      11293.59631462
Element set:     225
Inclination:      098.7075 deg
RA of node:       300.4872 deg
Eccentricity:    0.0009154
Arg of perigee:   193.5179 deg
Mean anomaly:     166.5754 deg
Mean motion:   14.20865995 rev/day
Decay rate:       3.21e-06 rev/day^2
Epoch rev:           43072
Checksum:              325

Satellite: CO-57
Catalog number: 27848
Epoch time:      11293.55940764
Element set:     171
Inclination:      098.7142 deg
RA of node:       299.6840 deg
Eccentricity:    0.0009168
Arg of perigee:   198.6468 deg
Mean anomaly:     161.4388 deg
Mean motion:   14.20638804 rev/day
Decay rate:       2.77e-06 rev/day^2
Epoch rev:           43066
Checksum:              353

Satellite: AO-51
Catalog number: 28375
Epoch time:      11292.63066281
Element set:    0100
Inclination:      098.1136 deg
RA of node:       264.6347 deg
Eccentricity:    0.0084997
Arg of perigee:   052.8659 deg
Mean anomaly:     308.0269 deg
Mean motion:   14.40798243 rev/day
Decay rate:       2.55e-06 rev/day^2
Epoch rev:           38398
Checksum:              334

Satellite: CP3
Catalog number: 31129
Epoch time:      11292.48803049
Element set:    0999
Inclination:      097.8925 deg
RA of node:       309.4885 deg
Eccentricity:    0.0102771
Arg of perigee:   154.2002 deg
Mean anomaly:     206.4399 deg
Mean motion:   14.52613108 rev/day
Decay rate:       8.39e-06 rev/day^2
Epoch rev:           23888
Checksum:              328

Satellite: CO-65
Catalog number: 32785
Epoch time:      11292.70796707
Element set:    0128
Inclination:      097.8345 deg
RA of node:       354.1339 deg
Eccentricity:    0.0015680
Arg of perigee:   127.5104 deg
Mean anomaly:     232.7507 deg
Mean motion:   14.82228124 rev/day
Decay rate:      1.810e-05 rev/day^2
Epoch rev:           18798
Checksum:              321

Satellite: PRISM
Catalog number: 33493
Epoch time:      11293.75245259
Element set:      71
Inclination:      098.1415 deg
RA of node:       064.3446 deg
Eccentricity:    0.0019602
Arg of perigee:   358.1701 deg
Mean anomaly:     001.9456 deg
Mean motion:   14.82178198 rev/day
Decay rate:      4.133e-05 rev/day^2
Epoch rev:           14811
Checksum:              291

Satellite: SOHLA-1
Catalog number: 33496
Epoch time:      11292.91675774
Element set:    0558
Inclination:      098.0899 deg
RA of node:       041.5548 deg
Eccentricity:    0.0007559
Arg of perigee:   086.5705 deg
Mean anomaly:     273.6358 deg
Mean motion:   14.69699695 rev/day
Decay rate:       6.90e-06 rev/day^2
Epoch rev:           14680
Checksum:              374

Satellite: TISAT-1
Catalog number: 36799
Epoch time:      11293.76320589
Element set:     341
Inclination:      098.0900 deg
RA of node:       003.1919 deg
Eccentricity:    0.0014282
Arg of perigee:   228.7805 deg
Mean anomaly:     131.2195 deg
Mean motion:   14.80870088 rev/day
Decay rate:      2.671e-05 rev/day^2
Epoch rev:            6889
Checksum:              319

Satellite: STUDSAT
Catalog number: 36801
Epoch time:      11292.80445848
Element set:     259
Inclination:      098.0946 deg
RA of node:       002.1911 deg
Eccentricity:    0.0012808
Arg of perigee:   220.3362 deg
Mean anomaly:     139.6906 deg
Mean motion:   14.81409414 rev/day
Decay rate:      6.620e-05 rev/day^2
Epoch rev:            6874
Checksum:              294

Satellite: OOREOS
Catalog number: 37224
Epoch time:      11283.12196780
Element set:    0302
Inclination:      071.9656 deg
RA of node:       145.3580 deg
Eccentricity:    0.0018647
Arg of perigee:   057.9354 deg
Mean anomaly:     302.3616 deg
Mean motion:   14.77183931 rev/day
Decay rate:       9.55e-06 rev/day^2
Epoch rev:           04784
Checksum:              307

Satellite: FO-69
Catalog number: 37227
Epoch time:      11292.50605193
Element set:    0003
Inclination:      071.9688 deg
RA of node:       125.1347 deg
Eccentricity:    0.0015536
Arg of perigee:   047.3200 deg
Mean anomaly:     312.9271 deg
Mean motion:   14.76695150 rev/day
Decay rate:       7.45e-06 rev/day^2
Epoch rev:           00041
Checksum:              281

Satellite: NANOSALD
Catalog number: 37361
Epoch time:      11242.25215765
Element set:    0351
Inclination:      071.9735 deg
RA of node:       221.4469 deg
Eccentricity:    0.0025730
Arg of perigee:   245.3422 deg
Mean anomaly:     114.7284 deg
Mean motion:   15.22200108 rev/day
Decay rate:    1.80112e-03 rev/day^2
Epoch rev:           03331
Checksum:              248

